Home   Weather   Woodbridge   Past weeks
Flag for USA

Past Weather in Woodbridge, South Carolina, USA — Yesterday and Last 2 Weeks

Now
92 °F

Scattered clouds.


Feels Like: 93 °F
Forecast: 90 / 69 °F
Wind: 14 mph from South

Location: Florence Regional Airport

Current Time: May 19, 2019 at 6:53:09 pm

Latest Report: May 19, 2019 at 5:53 pm


Visibility: 10 mi

Pressure: 29.99 "Hg

Humidity: 38%

Dew Point: 63 °F

Location of WoodbridgeLocation

Past Weather in Woodbridge — Graph

°F

Woodbridge Temperature Yesterday

Maximum temperature yesterday: 97 °F (at 3:53 pm)
Minimum temperature yesterday: 72 °F (at 6:53 am)
Average temperature yesterday: 83 °F

High & Low Weather Summary for the Past Weeks

 TemperatureHumidityPressure
High97 °F (May 18, 3:53 pm)97% (May 8, 4:53 am)30.19 "Hg (May 8, 4:53 am)
Low52 °F (May 15, 4:53 am)28% (May 13, 3:53 pm)29.66 "Hg (May 5, 4:53 pm)
Average74 °F66%29.96 "Hg
* Reported May 4 4:53 pm — May 19 4:53 pm, Woodbridge. Weather by CustomWeather, © 2019

Note: Actual official high and low records may vary slightly from our data, if they occured in-between our weather recording intervals... More about our weather records

Advertising

Woodbridge Weather History for the Previous 24 Hours

Scroll right to see more
 ConditionsComfort  
Time TempWeatherWind HumidityBarometerVisibility
4:53 pm
Sun, May 19
93 °FPassing clouds.10 mph38%30.01 "Hg10 mi
3:53 pm93 °FScattered clouds.10 mph40%30.02 "Hg10 mi
2:53 pm92 °FPartly sunny.7 mph40%30.04 "Hg10 mi
1:53 pm92 °FScattered clouds.13 mph40%30.06 "Hg10 mi
12:53 pm90 °FSunny.12 mph43%30.07 "Hg10 mi
11:53 am87 °FSunny.10 mph48%30.08 "Hg10 mi
10:53 am85 °FSunny.10 mph50%30.08 "Hg10 mi
9:53 am82 °FSunny.9 mph56%30.09 "Hg10 mi
8:53 am79 °FSunny.13 mph67%30.08 "Hg10 mi
7:53 am74 °FSunny.6 mph82%30.07 "Hg10 mi
6:53 am70 °FFog.5 mph87%30.06 "Hg6 mi
5:53 am69 °FClear.5 mph87%30.06 "Hg7 mi
4:53 am70 °FClear.3 mph87%30.05 "Hg9 mi
3:53 am72 °FClear.5 mph84%30.04 "Hg10 mi
2:53 am73 °FClear.5 mph81%30.03 "Hg10 mi
1:53 am75 °FClear.7 mph79%30.03 "Hg10 mi
12:53 am76 °FClear.6 mph80%30.03 "Hg10 mi
11:53 pm
Sat, May 18
77 °FClear.7 mph77%30.03 "Hg10 mi
10:53 pm78 °FClear.3 mph71%30.03 "Hg10 mi
9:53 pm80 °FClear.6 mph64%30.01 "Hg10 mi
8:53 pm81 °FClear.7 mph60%29.98 "Hg10 mi
7:53 pm85 °FSunny.6 mph55%29.96 "Hg10 mi
6:53 pm89 °FScattered clouds.9 mph46%29.94 "Hg10 mi
Weather by CustomWeather, © 2019

See weather overview